TimeMST,TemperatureF,Dew PointF,Humidity,Sea Level PressureIn,VisibilityMPH,Wind Direction,Wind SpeedMPH,Gust SpeedMPH,PrecipitationIn,Events,Conditions,WindDirDegrees,DateUTC
12:53 AM,44.1,28.9,55,29.96,10.0,WNW,13.8,-,N/A,,Clear,290,2012-11-17 07:53:00
1:53 AM,42.1,28.9,60,29.97,10.0,West,17.3,-,N/A,,Clear,280,2012-11-17 08:53:00
2:53 AM,44.1,28.0,53,29.98,10.0,WSW,17.3,-,N/A,,Clear,240,2012-11-17 09:53:00
3:53 AM,35.1,27.0,72,30.02,10.0,Variable,4.6,-,N/A,,Partly Cloudy,0,2012-11-17 10:53:00
4:53 AM,33.1,26.1,75,30.04,10.0,WNW,8.1,-,N/A,,Clear,300,2012-11-17 11:53:00
5:53 AM,32.0,26.1,79,30.04,10.0,NW,11.5,-,N/A,,Partly Cloudy,310,2012-11-17 12:53:00
6:53 AM,30.9,24.1,76,30.03,10.0,WNW,8.1,-,N/A,,Clear,300,2012-11-17 13:53:00
7:53 AM,30.9,25.0,79,30.05,10.0,NW,11.5,20.7,N/A,,Clear,320,2012-11-17 14:53:00
8:53 AM,43.0,28.0,56,30.01,10.0,West,11.5,-,N/A,,Clear,270,2012-11-17 15:53:00
9:53 AM,48.0,28.9,48,29.99,10.0,WSW,15.0,-,N/A,,Clear,250,2012-11-17 16:53:00
10:53 AM,51.1,26.1,38,29.96,10.0,WSW,15.0,23.0,N/A,,Partly Cloudy,240,2012-11-17 17:53:00
11:53 AM,52.0,28.0,40,29.92,10.0,SSW,18.4,25.3,N/A,,Mostly Cloudy,200,2012-11-17 18:53:00
12:53 PM,53.1,28.0,38,29.89,10.0,SW,12.7,26.5,N/A,,Clear,220,2012-11-17 19:53:00
1:53 PM,54.0,28.0,37,29.88,10.0,SSW,15.0,23.0,N/A,,Clear,210,2012-11-17 20:53:00
2:53 PM,54.0,28.9,38,29.85,10.0,SW,15.0,26.5,N/A,,Clear,220,2012-11-17 21:53:00
3:53 PM,52.0,30.0,43,29.87,10.0,WSW,20.7,26.5,N/A,,Clear,240,2012-11-17 22:53:00
4:53 PM,48.9,30.9,50,29.87,10.0,SW,13.8,-,N/A,,Clear,230,2012-11-17 23:53:00
5:53 PM,48.9,30.9,50,29.85,10.0,SW,17.3,25.3,N/A,,Clear,220,2012-11-18 00:53:00
6:53 PM,48.9,30.9,50,29.84,10.0,WSW,10.4,23.0,N/A,,Clear,240,2012-11-18 01:53:00
7:53 PM,48.9,30.9,50,29.83,10.0,SW,13.8,-,N/A,,Clear,220,2012-11-18 02:53:00
8:53 PM,48.0,30.9,52,29.78,10.0,Calm,Calm,-,N/A,,Scattered Clouds,0,2012-11-18 03:53:00
9:53 PM,48.0,30.9,52,29.76,10.0,WNW,8.1,-,N/A,,Clear,300,2012-11-18 04:53:00
10:53 PM,46.0,30.9,56,29.74,10.0,WNW,9.2,-,N/A,,Partly Cloudy,290,2012-11-18 05:53:00
11:53 PM,39.9,30.0,68,29.76,10.0,East,4.6,-,N/A,,Mostly Cloudy,80,2012-11-18 06:53:00